Location: Kuppenheim
(48.8299°N, 8.2568°E)
Time: 09:21:26
(UTC+00:00)

Helios 1B rocket - Pass Details

Date: 20 June 2021
Orbit: 573 x 583 km, 98.2° (Epoch: 04 August)

Event Time Altitude Azimuth Distance (km) Brightness Sun altitude
Rises 02:21:59 0° 4° (N) 2,802 6.9 -8.0°
Reaches altitude 10° 02:24:25 10° 351° (N) 1,897 5.7 -7.8°
Maximum altitude 02:27:47 25° 296° (WNW) 1,179 3.9 -7.4°
Drops below altitude 10° 02:31:08 10° 240° (WSW) 1,882 4.4 -7.1°
Enters shadow 02:31:35 - 237° (WSW) 2,040 4.6 -7.0°
